Regional Weather Roundup
Issued by NWS

Home | Current Version | Previous Version | Graphics & Text | Print | Product List | Glossary On
Versions: 1 2 3 4 5 6 7 8 9 10 11 12 13 14 15 16 17 18 19 20 21 22 23 24 25 26 27 28 29 30 31 32 33 34 35 36 37 38 39 40 41 42 43 44 45 46 47 48 49 50
000
ASUS43 KFSD 291602
RWRSD

WEATHER ROUNDUP FOR SOUTH DAKOTA
NATIONAL WEATHER SERVICE SIOUX FALLS SD
1100 AM CDT SAT APR 29 2017

NOTE: "FAIR" INDICATES FEW OR NO CLOUDS BELOW 12,000 FEET WITH NO
SIGNIFICANT WEATHER AND/OR OBSTRUCTIONS TO VISIBILITY.


SDZ001>005-009-010-012>017-291700-
NORTHWEST AND NORTH CENTRAL SOUTH DAKOTA

CITY           SKY/WX    TMP DP  RH WIND       PRES   REMARKS
BUFFALO          N/A     49  28  44 S5        30.22F
FAITH            N/A     51  19  28 VRB3      30.29S
MOBRIDGE       SUNNY     54  16  22 VRB3      30.28F
$$

SDZ012>016-024>037-041>051-057-063-072>074-291700-
SOUTHWEST AND SOUTH CENTRAL SOUTH DAKOTA

CITY           SKY/WX    TMP DP  RH WIND       PRES   REMARKS
RAPID CTY ARPT CLOUDY    48  21  34 VRB3      30.30R
PIERRE         SUNNY     49  20  31 S5        30.30R
CUSTER         CLOUDY    34  11  38 E9        30.25S WCI  27
ELLSWORTH AFB  CLOUDY    46  22  38 NE3       30.29S
PHILIP         MOSUNNY   52  20  28 E9        30.31R
PINE RIDGE     PTSUNNY   44  23  43 NE9       30.28S
SPEARFISH      FAIR      45  16  31 E9        30.29S
WINNER         FAIR      48  20  32 NE13      30.28R
$$

SDZ004>011-016>023-039-040-291700-
NORTHEAST SOUTH DAKOTA

CITY           SKY/WX    TMP DP  RH WIND       PRES   REMARKS
ABERDEEN       SUNNY     49  18  29 VRB3      30.31F
WATERTOWN      MOSUNNY   46  22  38 VRB7      30.27F
BROOKINGS      CLOUDY    46  20  35 E16       30.26F
SISSETON         N/A     48  23  37 S7        30.30F
$$

SDZ017-020-022-023-036>040-048>070-291700-
SOUTHEAST SOUTH DAKOTA

CITY           SKY/WX    TMP DP  RH WIND       PRES   REMARKS
SIOUX FALLS    CLOUDY    48  30  49 NE13      30.23F
HURON          MOSUNNY   49  24  37 E8        30.29F
CHAMBERLAIN    CLOUDY    50  23  34 NE5       30.29R
MITCHELL       SUNNY     51  25  36 NE15G21   30.28R
YANKTON        CLOUDY    46  28  49 NE16      30.21R
$$

ABBREVIATIONS USED IN REMARKS
   TC - TEMPERATURE IN CELSIUS
  WCI - WIND CHILL INDEX
   HX - HEAT INDEX
  VSB - VISIBILITY




USA.gov is the U.S. government's official web portal to all federal, state and local government web resources and services.